Location: Water Valley
(37.5587°N, 89.1754°W)
Time: 18:37:40
(UTC+00:00)

Daily predictions for brighter satellites

Satellite Brightness Start Highest point End
(mag) Time Altitude Azimuth Time Altitude Azimuth Time Altitude Azimuth
STARLINK-1162 3.2 12:01:58 10° NW 12:05:25 78° NE 12:08:50 10° SE
STARLINK-1157 3.2 12:04:37 10° NW 12:08:05 84° NE 12:11:31 10° SE
Cosmos 468 Rocket 4.4 12:04:23 10° NNW 12:09:20 42° WSW 12:14:14 10° S
Envisat 4.4 12:05:16 10° NNE 12:10:08 45° E 12:14:58 10° S
USA 267 4.2 12:05:37 10° S 12:11:01 27° SW 12:16:27 10° WNW
